Vertical_Velocity
1 -1 -19 -1 18 12 -6 -3 -4 0 -3 2 -0 0 6 4 6 1 -0 4 5 3
2 -12 8 4 -8 -6 -4 -3 -0 -0 3 2 1 -4 -1 -4 -2 -4 -3 3 2 1
0 0 -10 -7 -10 -2 1 -2 -0 -1 -4 -3 -1 -7 5 5 1 5 4 0 4 -3
6 1 6 6 9 4 -2 0 0 6 4 7 -1 4 5 -3 -4 2 -6 2 2 6
2 -1 -3 -1 2 0 -3 -1 -0 2 -1 -6 -2 0 -3 2 3 3 4 4 6 -2
3 5 3 3 4 4 2 -0 -1 -2 0 0 0 3 -1 -6 -1 -6 -5 -2 -6 -2
2 1 -0 -0 -2 -0 -1 -1 -3 -2 -3 -3 -3 -5 -1 -1 0 -1 -2 0 0 1
2 2 1 0 1 0 -2 -2 -2 -1 -1 -1 -1 -2 -0 1 1 1 2 2 1 1
-1 -1 -1 -1 -1 -0 1 0 1 1 2 2 -1 -1 -1 -0 2 0 -2 1 2 2
-1 -1 -1 -1 -0 1 1 1 -0 -1 -1 1 0 -1 -0 -1 -1 1 1 0 -0 2
-1 -2 -2 -2 -2 -3 -2 -1 -0 1 2 1 -0 -0 -0 1 2 2 0 -0 -0 -1
-0 -1 -1 0 2 1 2 1 0 -1 -0 -0 1 1 1 -0 -1 -1 -2 -1 0 0
2 2 2 1 1 0 -1 -0 -1 -1 -2 -3 -2 -3 -2 -2 -2 -1 -2 -2 -2 -2
-3 -1 -0 1 1 1 1 -1 -0 0 -1 -2 -2 -2 -1 -0 -1 -2 -1 -0 -1 -0
Height
3023 3025 3022 3019 3028 3030 3037 3040 3042 3043 3044 3044 3045 3046 3047 3047 3047 3047 3047 3048 3048 3046
3019 3020 3022 3024 3028 3033 3034 3034 3035 3036 3036 3036 3036 3037 3038 3038 3038 3038 3039 3038 3037 3037
3021 3022 3024 3026 3027 3028 3026 3027 3029 3029 3028 3028 3027 3028 3029 3028 3029 3029 3029 3028 3028 3027
3021 3021 3021 3022 3022 3021 3022 3023 3023 3022 3022 3022 3021 3021 3019 3019 3019 3019 3020 3018 3019 3017
3019 3019 3019 3018 3017 3017 3018 3018 3017 3016 3015 3014 3014 3012 3012 3011 3009 3008 3008 3008 3007 3006
3018 3018 3017 3016 3015 3013 3012 3012 3010 3009 3008 3007 3005 3005 3004 3002 3001 2999 3000 3000 2999 2998
3016 3015 3014 3013 3011 3010 3009 3007 3006 3004 3003 3001 3000 2999 2997 2996 2994 2993 2992 2991 2990 2988
3012 3010 3009 3008 3007 3005 3003 3001 2999 2997 2996 2994 2992 2989 2987 2986 2984 2983 2981 2980 2978 2977
3010 3008 3006 3003 3001 2999 2997 2994 2991 2989 2987 2985 2983 2980 2977 2974 2973 2971 2969 2968 2967 2965
3006 3003 3000 2997 2995 2992 2989 2986 2984 2981 2978 2976 2972 2969 2965 2963 2960 2958 2956 2954 2952 2951
3001 2997 2994 2991 2988 2985 2982 2979 2976 2973 2970 2967 2964 2960 2956 2952 2949 2946 2944 2940 2938 2935
2994 2990 2987 2984 2981 2978 2975 2971 2967 2963 2960 2956 2953 2947 2943 2940 2936 2933 2930 2927 2924 2922
2986 2983 2980 2976 2973 2970 2966 2962 2959 2956 2951 2947 2945 2940 2936 2931 2927 2923 2920 2917 2914 2910
2981 2978 2975 2971 2967 2963 2960 2956 2953 2950 2945 2940 2935 2932 2928 2923 2918 2914 2910 2908 2905 2901